SCP
0 0 0 0 0 0 0 0 0 0 0 0 0 0 0 0 0 0 0 0 0 0 0 0 0 0 0 0 0 0 0 0 0 0 0 0 0 0 0 0 0 0 0
0 0 0 0 0 0 0 0 0 0 0 0 0 0 0 0 0 0 0 0 0 0 0 0 0 0 0 0 0 0 0 0 0 0 0 0 0 0 0 0 0 0 0
-0 -0 -0 0 0 0 0 0 0 0 0 0 0 0 0 0 0 0 0 0 0 0 0 0 0 0 0 0 0 0 0 0 0 0 0 0 0 0 0 0 0 0 0
-0 -0 0 0 0 0 0 0 0 0 0 0 0 0 0 0 0 0 0 0 0 0 0 0 0 0 0 0 0 0 0 0 0 0 0 0 0 0 0 0 0 0 0
-0 0 0 0 0 0 0 0 0 0 0 0 0 0 0 0 0 0 0 0 0 0 0 0 0 0 0 0 0 0 0 0 0 0 0 0 0 0 0 0 0 0 0
0 0 0 0 0 0 0 0 0 0 0 0 0 0 0 0 0 0 0 0 0 0 0 0 0 0 0 0 0 0 0 0 0 0 0 0 0 0 0 0 0 0 0
0 0 0 0 0 0 0 0 0 0 0 0 0 0 0 0 0 0 0 0 0 0 0 0 0 0 0 0 0 0 0 0 0 0 0 0 0 0 0 0 0 0 0
0 0 0 0 0 0 0 0 0 0 0 0 0 0 0 0 0 0 0 0 0 0 0 0 0 0 0 0 0 0 0 0 0 0 0 0 0 0 0 0 0 0 0
0 0 0 0 0 0 0 0 0 0 0 0 0 0 0 0 0 0 0 0 0 0 0 0 0 0 0 0 0 0 0 0 0 0 0 0 0 0 0 0 0 0 0
0 0 0 0 0 0 0 0 0 0 0 0 0 0 0 0 0 0 0 0 0 0 0 0 0 0 0 0 0 0 0 0 0 0 0 0 0 0 0 0 0 0 0
0 0 0 0 0 0 0 0 0 0 0 0 0 0 0 0 0 0 0 0 0 0 0 0 0 0 0 0 0 0 0 0 0 0 0 0 0 0 0 0 0 0 0
0 0 0 0 0 0 0 0 0 0 0 0 0 0 0 0 0 0 0 0 0 0 0 0 0 0 0 0 0 0 0 0 0 0 0 0 0 0 0 0 0 0 0
0 0 0 0 0 0 0 0 0 0 0 0 0 0 0 0 0 0 0 0 0 0 0 0 0 0 0 0 0 0 0 0 0 0 0 0 0 0 0 0 0 0 0
0 0 0 0 0 0 0 0 0 0 0 0 0 0 0 0 0 0 0 0 0 0 0 0 0 0 0 0 0 0 0 0 0 0 0 0 0 0 0 0 0 0 0
0 0 0 0 0 0 0 0 0 0 0 0 0 0 0 0 0 0 0 0 0 0 0 0 0 0 0 0 0 0 0 0 0 0 0 0 0 0 0 0 0 0 0
0 0 0 0 0 0 0 0 0 0 0 0 0 0 0 0 0 0 0 0 0 0 0 0 0 0 0 0 0 0 0 0 0 0 0 0 0 0 0 0 0 0 0
0 0 0 0 0 0 0 0 0 0 0 0 0 0 0 0 0 0 0 0 0 0 0 0 0 0 0 0 0 0 0 0 0 0 0 0 0 0 0 0 0 0 0
0 0 0 0 0 0 0 0 0 0 0 0 0 0 0 0 0 0 0 0 0 0 0 0 0 0 0 0 0 0 0 0 0 0 0 0 0 0 0 0 0 0 0
0 0 0 0 0 0 0 0 0 0 0 0 0 0 0 0 0 0 0 0 0 0 0 0 0 0 0 0 0 0 0 0 0 0 0 0 0 0 0 0 0 0 0
0 0 0 0 0 0 0 0 0 0 0 0 0 0 0 0 0 0 0 0 0 0 0 0 0 0 0 0 0 0 0 0 0 0 0 0 0 0 0 0 0 0 0
0 0 0 0 0 0 0 0 0 0 0 0 0 0 0 0 0 0 0 0 0 0 0 0 0 0 0 0 0 0 0 0 0 0 0 0 0 0 0 0 0 0 0
0 0 0 0 0 0 0 0 0 0 0 0 0 0 0 0 0 0 0 0 0 0 0 0 0 0 0 0 0 0 0 0 0 0 0 0 0 0 0 0 0 0 0
0 0 0 0 0 0 0 0 0 0 0 0 0 0 0 0 0 0 0 0 0 0 0 0 0 0 0 0 0 0 0 0 0 0 0 0 0 0 0 0 0 0 0
0 0 0 0 0 0 0 0 0 0 0 0 0 0 0 0 0 0 0 0 0 0 0 0 0 0 0 0 0 0 0 0 0 0 0 0 0 0 0 0 0 0 0
0 0 0 0 0 0 0 0 0 0 0 0 0 0 0 0 0 0 0 0 0 0 0 0 0 0 0 0 0 0 0 0 0 0 0 0 0 0 0 0 0 0 0
0 0 0 0 0 0 0 0 0 0 0 0 0 0 0 0 0 0 0 0 0 0 0 0 0 0 0 0 0 0 0 0 0 0 0 0 0 0 0 0 0 0 0
Wind_Speed
1 1 1 1 2 2 3 3 3 3 2 2 1 1 0 0 0 0 1 1 1 0 1 2 2 2 2 2 2 2 2 3 2 2 4 5 7 8 7 7 7 9 10
1 1 2 2 2 2 3 3 3 3 2 1 1 1 1 0 0 1 1 1 1 1 2 2 2 2 2 3 3 2 2 2 1 1 2 4 4 3 6 6 7 8 7
5 4 3 3 4 4 4 3 3 2 2 2 2 2 2 2 1 1 2 2 3 3 3 3 3 3 3 3 4 3 4 3 2 3 2 2 3 4 3 4 5 5 6
4 4 4 4 5 5 3 2 2 1 1 2 2 2 2 1 2 1 2 3 3 4 4 3 3 3 3 4 5 4 4 4 3 2 3 4 3 3 4 3 2 4 5
4 5 5 4 3 2 2 2 2 1 1 1 2 2 1 2 1 1 3 3 4 4 4 3 3 3 3 5 5 4 4 4 4 3 2 3 3 4 4 5 4 3 3
4 4 2 1 1 0 1 1 1 1 0 0 1 2 2 2 3 3 3 3 3 4 5 4 4 4 4 4 5 5 5 4 5 4 3 3 3 2 3 4 4 4 3
3 3 2 2 1 1 1 1 1 0 1 1 1 2 2 3 4 4 4 4 3 3 5 4 4 4 4 4 4 4 5 5 6 5 4 4 4 3 3 3 4 4 3
3 3 3 2 2 1 1 1 1 1 1 1 2 2 2 2 3 4 4 4 4 5 6 5 5 6 5 5 4 4 5 5 6 7 6 4 4 4 4 3 3 3 3
2 2 2 1 1 1 1 1 1 1 2 2 3 3 3 3 4 5 4 4 5 5 6 6 6 6 6 5 5 4 5 5 5 6 6 5 4 4 4 4 3 3 3
2 2 2 1 1 0 0 1 1 2 3 3 3 3 4 4 4 4 5 6 6 5 6 6 6 6 6 6 5 5 6 6 6 5 6 6 5 5 4 4 4 4 3
3 2 1 0 0 1 1 2 3 3 4 4 4 4 5 5 5 5 6 6 6 6 6 7 7 7 7 6 5 7 7 7 7 6 7 8 7 5 5 5 4 4 4
2 2 1 1 1 2 3 3 4 4 5 4 4 5 5 5 5 6 6 6 6 6 7 7 7 7 7 7 7 8 8 8 8 8 8 8 6 8 6 5 6 5 5
2 1 1 2 3 4 4 5 5 5 5 4 4 5 6 6 6 7 6 6 7 7 7 7 7 8 8 8 8 8 9 9 9 9 9 9 8 8 7 7 7 6 5
2 2 3 4 5 5 5 5 6 5 5 4 5 6 6 6 7 7 7 7 7 7 8 8 8 9 9 9 9 9 9 9 9 9 9 10 9 10 9 8 8 7 6
4 5 5 5 5 5 5 5 5 5 4 5 6 7 7 7 7 7 8 8 8 8 8 8 9 9 8 8 9 9 9 9 9 9 9 10 12 13 10 8 8 8 7
6 7 6 6 6 6 6 5 5 5 4 5 7 7 7 7 7 8 8 8 8 8 8 8 9 9 8 10 13 11 9 9 9 10 9 10 12 14 15 15 13 12 10
7 7 7 7 6 6 6 6 6 5 5 6 7 7 7 8 8 8 8 8 8 8 9 9 9 10 11 14 15 16 10 10 10 10 9 9 9 11 9 11 13 14 15
8 7 6 6 5 5 5 5 5 5 5 6 7 7 7 8 8 8 9 8 7 8 8 9 10 10 11 13 13 14 11 9 10 10 10 10 10 9 9 9 9 9 10
8 7 6 5 4 5 5 4 5 5 6 7 7 7 7 8 9 9 9 8 7 8 8 8 9 10 11 12 12 11 7 8 10 10 10 10 10 11 11 10 9 9 8
6 5 4 4 5 5 3 4 6 6 7 8 8 8 7 8 9 9 9 7 7 8 8 9 8 9 10 11 11 9 5 7 8 8 8 12 12 12 13 10 9 10 8
6 5 4 4 6 4 3 5 6 7 8 7 7 8 8 8 9 8 7 8 8 8 8 9 8 8 8 10 10 8 5 6 7 6 6 7 11 13 13 12 9 9 8
6 5 5 6 5 4 4 6 7 7 6 6 7 8 8 8 7 7 8 7 7 8 8 7 8 6 6 6 7 8 7 7 7 6 6 6 10 12 12 10 9 10 8
6 5 5 6 5 5 5 6 7 6 5 6 8 8 9 8 7 7 8 7 6 6 6 6 6 6 5 5 7 8 7 7 5 5 7 7 9 9 8 10 11 9 7
6 5 5 6 6 5 5 7 7 5 5 7 8 7 8 8 8 6 5 6 6 6 6 6 6 6 5 4 4 4 4 5 4 4 4 5 6 6 5 6 7 6 6
5 5 6 7 7 5 6 6 5 4 5 7 7 7 7 7 8 7 6 7 7 7 7 6 5 6 6 5 6 5 4 3 3 2 1 1 2 3 4 4 5 5 6
5 5 6 7 7 5 6 6 5 4 5 6 7 6 6 6 6 7 8 8 8 10 10 10 8 7 9 9 8 7 7 6 5 2 2 2 3 4 4 5 5 5 6
Wind_Direction
157 164 180 161 135 152 156 161 153 155 141 128 134 140 197 264 302 273 279 293 297 272 240 256 258 247 240 246 243 242 253 256 240 271 286 275 253 245 243 237 234 235 233
212 221 209 211 215 213 194 178 174 174 178 165 155 159 154 192 255 319 332 334 335 306 269 256 259 253 249 260 245 219 235 252 219 228 292 306 305 270 244 232 231 237 233
213 218 224 223 224 223 214 198 196 192 182 150 104 81 58 27 -0 339 324 322 322 309 291 272 260 253 235 246 242 218 215 237 249 217 224 264 287 312 292 248 239 240 236
234 228 231 232 227 226 214 204 199 200 182 153 152 158 170 221 246 260 287 307 312 307 296 280 269 257 243 244 247 228 217 215 238 245 231 234 249 277 305 306 269 254 247
237 232 229 231 240 231 204 193 178 207 209 179 176 173 202 235 269 288 299 304 305 302 295 283 274 265 253 248 247 239 223 215 220 222 230 241 246 243 259 287 300 293 261
230 230 228 219 233 192 155 155 163 245 297 214 201 203 235 259 281 287 291 292 294 296 292 285 275 269 259 251 247 241 233 225 226 227 222 222 229 234 241 265 286 291 281
223 218 209 206 199 167 142 106 118 325 335 311 276 259 256 256 257 267 271 278 284 281 281 282 275 270 261 257 249 242 240 230 226 228 228 228 232 233 237 255 274 280 286
220 208 198 187 182 163 126 110 108 304 315 302 290 284 268 253 256 258 257 260 260 265 275 278 272 268 266 266 254 247 246 236 233 237 231 230 233 228 228 234 263 288 287
202 180 163 155 160 143 139 159 182 272 289 289 288 284 279 267 267 272 265 262 261 267 270 271 271 270 266 262 256 250 254 246 239 240 235 231 235 229 228 228 229 249 279
171 151 133 134 148 184 301 312 260 266 278 284 278 280 279 273 270 274 274 271 271 271 278 277 274 272 269 263 255 254 255 252 249 241 240 238 234 231 227 224 225 224 242
187 174 166 186 303 313 294 284 282 279 281 281 280 284 283 282 280 274 273 275 277 277 274 274 274 272 270 264 255 253 254 252 254 250 241 243 235 229 226 220 222 223 224
163 161 186 285 295 286 285 284 284 281 277 279 284 282 283 285 283 278 278 278 277 277 273 273 273 272 269 261 254 257 257 249 250 250 244 246 240 231 226 219 221 222 218
151 173 262 273 276 279 284 288 286 280 281 285 286 287 287 285 280 277 279 281 280 280 279 273 270 270 269 265 259 255 256 252 249 247 242 243 237 234 227 221 221 219 219
200 229 255 266 272 277 280 285 286 280 282 285 285 285 284 281 279 279 280 280 278 278 277 274 270 269 269 266 263 258 255 253 252 249 244 241 234 232 227 223 220 215 213
233 241 249 261 271 277 279 278 279 282 285 289 288 283 284 284 283 282 282 281 279 279 275 276 276 272 268 263 258 253 254 251 253 252 247 244 239 235 227 222 215 208 206
241 249 255 261 265 267 271 275 276 280 286 284 283 285 288 289 286 284 284 285 284 282 280 277 277 275 271 267 265 263 259 254 252 253 251 249 250 245 234 228 217 206 202
240 246 250 252 257 260 259 262 268 281 285 282 284 287 289 290 288 289 291 288 286 285 285 282 278 275 272 268 268 268 264 255 251 248 248 250 245 233 230 229 226 219 215
240 245 247 253 258 259 260 264 273 279 282 284 286 288 290 291 292 291 288 286 285 285 285 284 282 280 278 274 269 269 265 256 250 245 240 240 244 237 225 222 222 221 221
229 234 237 241 256 264 264 273 280 282 284 284 285 287 289 292 295 293 290 288 287 288 286 284 284 283 284 281 278 272 265 256 253 246 239 234 237 234 222 219 219 220 227
233 235 241 243 255 261 261 265 275 281 280 280 283 286 287 289 291 289 288 286 284 285 288 286 283 280 282 285 284 279 260 256 255 248 241 235 231 227 214 213 212 215 219
226 228 231 240 249 256 249 257 269 271 271 278 285 289 288 287 285 283 283 287 288 289 287 287 287 282 279 285 286 284 261 251 251 248 242 235 225 222 214 210 211 213 206
226 221 223 244 254 249 235 255 264 266 277 283 288 291 291 290 291 289 291 289 287 290 291 292 296 290 283 282 291 292 281 259 246 246 243 236 223 218 212 210 210 204 197
223 218 218 244 261 250 229 249 262 274 284 289 291 293 296 294 288 287 292 297 293 287 289 290 293 296 295 289 291 298 299 289 257 249 242 235 225 217 212 214 205 195 195
223 216 215 237 256 255 242 243 263 275 278 285 292 296 300 302 301 293 286 287 290 291 290 288 289 294 297 299 307 311 310 305 281 263 250 232 218 208 200 196 199 196 195
219 208 214 232 248 258 261 261 262 264 274 284 291 297 297 298 303 301 289 283 275 265 270 279 278 285 293 298 303 302 298 292 286 276 229 205 194 189 186 183 182 185 190
212 215 225 236 250 256 263 268 262 251 266 285 294 297 300 302 302 305 307 289 274 279 267 256 256 264 262 283 294 296 295 285 277 253 218 211 206 197 185 180 181 186 188